Flag for Norway Weather past 2 weeks in Hommersåk, Norway

Now
46 °F

Passing clouds.


Feels Like: 40 °F
Forecast: 45 / 50 °F
Wind: 14 mph from Northwest

Location: Stavanger / Sola

Current Time: May 26, 2015 at 12:38:01 AM

Latest Report: May 25, 2015 at 11:50 PM


Visibility: N/A

Pressure: 29.89 "Hg

Humidity: 87%

Dew point: 43 °F

Location of HommersåkLocation

Historic Weather in Hommersåk — Graph

°F

Hommersåk temperature yesterday

Maximum temperature yesterday: 52 °F (at 7:20 PM)
Minimum temperature yesterday: 45 °F (at 5:50 AM)
Average temperature yesterday: 49 °F

Past Weeks' High & Low Weather Summary

 TemperatureHumidityPressure
High54 °F (May 12, 2:20 PM)100% (May 11, 5:20 PM)30.18 "Hg (May 11, 5:20 PM)
Low37 °F (May 15, 6:50 AM)47% (May 18, 5:20 PM)29.24 "Hg (May 19, 5:50 AM)
Average48 °F81%29.83 "Hg
* Reported May 10 11:50 PM — May 25 11:20 PM, Hommersåk, Weather by CustomWeather, © 2015

Note: Actual official high and low records may vary slightly from our data, if they occured in-between our weather recording intervals... More about our weather records

Advertising

Hommersåk weather history for previous 24 hours

 ConditionsComfort  
Time TempWeatherWind HumidityBarometerVisibility
11:20 PM
Mon, May 25
48 °FPassing clouds.14 mph82%29.89 "HgN/A
10:50 PM48 °FPassing clouds.13 mph82%29.89 "HgN/A
10:20 PM48 °FPassing clouds.13 mph82%29.86 "HgN/A
9:50 PM50 °FScattered clouds.13 mph76%29.86 "HgN/A
9:20 PM50 °FScattered clouds.8 mph71%29.86 "HgN/A
8:50 PM50 °FPartly sunny.9 mph71%29.86 "HgN/A
8:20 PM50 °FPartly sunny.8 mph71%29.86 "HgN/A
7:50 PM50 °FBroken clouds.15 mph76%29.86 "HgN/A
7:20 PM52 °FScattered clouds.15 mph77%29.83 "HgN/A
6:50 PM50 °FScattered clouds.15 mph76%29.83 "HgN/A
6:20 PM50 °FScattered clouds.14 mph76%29.83 "HgN/A
5:50 PM50 °FScattered clouds.14 mph76%29.83 "HgN/A
5:20 PM50 °FBroken clouds.13 mph82%29.83 "HgN/A
4:50 PM50 °FBroken clouds.13 mph76%29.83 "HgN/A
4:20 PM50 °FBroken clouds.10 mph76%29.83 "HgN/A
3:50 PM50 °FBroken clouds.10 mph76%29.83 "HgN/A
3:20 PM50 °FSprinkles. Broken clouds.10 mph82%29.83 "HgN/A
2:50 PM50 °FBroken clouds.9 mph76%29.83 "HgN/A
2:20 PM50 °FBroken clouds.9 mph76%29.83 "HgN/A
1:50 PM50 °FBroken clouds.9 mph76%29.83 "HgN/A
1:20 PM50 °FScattered showers. Partly sunny.9 mph76%29.83 "HgN/A
12:50 PM50 °FBroken clouds.8 mph76%29.83 "HgN/A
12:20 PM48 °FBroken clouds.5 mph76%29.83 "HgN/A
11:50 AM48 °FScattered showers. Broken clouds.5 mph76%29.83 "HgN/A
11:20 AM46 °FSprinkles. Broken clouds.13 mph87%29.83 "Hg6 mi
10:50 AM50 °FPartly sunny.10 mph76%29.83 "HgN/A
10:20 AM50 °FBroken clouds.10 mph76%29.83 "HgN/A
9:50 AM50 °FPartly sunny.10 mph76%29.83 "HgN/A
9:20 AM48 °FScattered showers. Broken clouds.8 mph87%29.83 "HgN/A
8:50 AM48 °FScattered showers. Broken clouds.3 mph82%29.83 "HgN/A
8:20 AM46 °FSprinkles. Partly sunny.8 mph87%29.83 "HgN/A
7:50 AM48 °FPartly sunny.6 mph82%29.83 "HgN/A
7:20 AM46 °FBroken clouds.3 mph87%29.83 "HgN/A
6:50 AM45 °FRain showers. Broken clouds.7 mph87%29.83 "HgN/A
6:20 AM48 °FScattered showers. Broken clouds.7 mph82%29.83 "HgN/A
5:50 AM45 °FScattered showers. Broken clouds.3 mph87%29.83 "HgN/A
4:50 AM46 °FRain showers. Partly cloudy.7 mph87%29.83 "HgN/A
3:50 AM46 °FScattered showers. Partly cloudy.9 mph82%29.83 "HgN/A
2:50 AM48 °FScattered showers. Passing clouds.10 mph82%29.83 "Hg6 mi
1:50 AM48 °FScattered showers. Partly cloudy.8 mph87%29.86 "HgN/A
1:20 AM48 °FScattered showers. Partly cloudy.6 mph87%29.86 "HgN/A
12:50 AM48 °FScattered showers. Partly cloudy.8 mph87%29.86 "HgN/A
Weather by CustomWeather, © 2015

See weather overviewHow to use our weather pages